When you browse on this site, cookies collect data to enhance your experience and personalize the content and advertising you see.
Visit our Privacy Policy to learn more. By continuing to use the site, you agree to this use of cookies and data.
  • In Slovakia
  • List of Countries
  • For 7 days
  • Water Temperature
  • Satellite Maps
  • Weather Map
  • Weather Widgets
  • user-avatar
    Login

    Hourly Weather San Luis

    Today, 19 February, Tuesday

    Time Temperature Precipitation Wind Pressure Humidity
    00:00 +28°C° 0 mm 3 mps 695 mmHg 42%
    01:00 +28°C° 0 mm 3 mps 695 mmHg 41%
    02:00 +27°C° 0 mm 3 mps 696 mmHg 41%
    03:00 +27°C° 0 mm 3 mps 696 mmHg 42%
    04:00 +27°C° 0 mm 3 mps 696 mmHg 43%
    05:00 +26°C° 0 mm 3 mps 696 mmHg 45%
    06:00 +27°C° 0 mm 3 mps 696 mmHg 43%
    07:00 +28°C° 0 mm 3 mps 697 mmHg 42%
    08:00 +29°C° 0 mm 3 mps 697 mmHg 40%
    09:00 +31°C° 0 mm 3 mps 697 mmHg 37%
    10:00 +33°C° 0 mm 3 mps 697 mmHg 34%
    11:00 +35°C° 0 mm 3 mps 697 mmHg 30%
    12:00 +36°C° 0 mm 3 mps 697 mmHg 28%
    13:00 +37°C° 0 mm 3 mps 696 mmHg 26%
    14:00 +37°C° 0 mm 3 mps 696 mmHg 24%
    15:00 +37°C° 0 mm 3 mps 695 mmHg 24%
    16:00 +37°C° 0 mm 2 mps 695 mmHg 25%
    17:00 +37°C° 0 mm 2 mps 694 mmHg 25%
    18:00 +35°C° 0.1 mm 2 mps 694 mmHg 29%
    19:00 +32°C° 0.1 mm 2 mps 694 mmHg 33%
    20:00 +30°C° 0.1 mm 3 mps 693 mmHg 37%
    21:00 +29°C° 0.2 mm 3 mps 694 mmHg 38%
    22:00 +29°C° 0.2 mm 3 mps 694 mmHg 39%
    23:00 +28°C° 0.2 mm 4 mps 695 mmHg 40%

    Tomorrow, 20 February, Wednesday

    Time Temperature Precipitation Wind Pressure Humidity
    00:00 +28°C° 0 mm 5 mps 695 mmHg 40%
    01:00 +28°C° 0 mm 5 mps 695 mmHg 40%
    02:00 +28°C° 0 mm 6 mps 694 mmHg 40%
    03:00 +28°C° 0 mm 7 mps 694 mmHg 40%
    04:00 +28°C° 0 mm 7 mps 694 mmHg 40%
    05:00 +28°C° 0 mm 8 mps 694 mmHg 40%
    06:00 +29°C° 0 mm 8 mps 695 mmHg 39%
    07:00 +31°C° 0 mm 9 mps 695 mmHg 37%
    08:00 +32°C° 0 mm 9 mps 696 mmHg 35%
    09:00 +34°C° 0 mm 9 mps 696 mmHg 32%
    10:00 +37°C° 0 mm 8 mps 696 mmHg 28%
    11:00 +39°C° 0 mm 8 mps 696 mmHg 25%
    12:00 +39°C° 0 mm 7 mps 695 mmHg 23%
    13:00 +40°C° 0 mm 7 mps 695 mmHg 21%
    14:00 +41°C° 0 mm 7 mps 694 mmHg 20%
    15:00 +41°C° 0 mm 7 mps 694 mmHg 19%
    16:00 +41°C° 0 mm 7 mps 693 mmHg 19%
    17:00 +41°C° 0 mm 7 mps 692 mmHg 18%
    18:00 +38°C° 0 mm 6 mps 692 mmHg 22%
    19:00 +34°C° 0 mm 5 mps 692 mmHg 25%
    20:00 +32°C° 0 mm 4 mps 692 mmHg 29%
    21:00 +30°C° 0 mm 4 mps 692 mmHg 31%
    22:00 +30°C° 0 mm 5 mps 693 mmHg 32%
    23:00 +29°C° 0 mm 5 mps 693 mmHg 34%

    Day after tomorrow, 21 February, Thursday

    Time Temperature Precipitation Wind Pressure Humidity
    00:00 +30°C° 0 mm 6 mps 693 mmHg 35%
    01:00 +30°C° 0 mm 6 mps 694 mmHg 36%
    02:00 +30°C° 0 mm 7 mps 694 mmHg 38%
    03:00 +29°C° 0 mm 6 mps 693 mmHg 41%
    04:00 +28°C° 0 mm 6 mps 693 mmHg 44%
    05:00 +27°C° 0 mm 5 mps 693 mmHg 48%
    06:00 +28°C° 0 mm 5 mps 694 mmHg 45%
    07:00 +29°C° 0 mm 5 mps 695 mmHg 43%
    08:00 +30°C° 0 mm 5 mps 696 mmHg 41%
    09:00 +33°C° 0 mm 5 mps 696 mmHg 37%
    10:00 +35°C° 0 mm 4 mps 696 mmHg 33%
    11:00 +36°C° 0 mm 4 mps 697 mmHg 29%
    12:00 +37°C° 0 mm 3 mps 696 mmHg 28%
    13:00 +38°C° 0 mm 3 mps 696 mmHg 26%
    14:00 +39°C° 0 mm 2 mps 695 mmHg 24%
    15:00 +39°C° 0 mm 3 mps 695 mmHg 24%
    16:00 +39°C° 0 mm 3 mps 694 mmHg 25%
    17:00 +40°C° 0 mm 4 mps 694 mmHg 25%
    18:00 +36°C° 0 mm 5 mps 694 mmHg 31%
    19:00 +34°C° 0 mm 6 mps 694 mmHg 37%
    20:00 +32°C° 0 mm 7 mps 694 mmHg 42%
    21:00 +30°C° 0 mm 7 mps 695 mmHg 47%
    22:00 +29°C° 0 mm 7 mps 695 mmHg 51%
    23:00 +28°C° 0 mm 7 mps 695 mmHg 55%

    22 February, Friday

    Time Temperature Precipitation Wind Pressure Humidity
    00:00 +27°C° 0.2 mm 7 mps 695 mmHg 61%
    01:00 +26°C° 0.2 mm 8 mps 695 mmHg 67%
    02:00 +24°C° 0.2 mm 8 mps 695 mmHg 73%
    03:00 +24°C° 0.1 mm 8 mps 695 mmHg 73%
    04:00 +24°C° 0.1 mm 7 mps 695 mmHg 73%
    05:00 +24°C° 0.1 mm 7 mps 695 mmHg 73%
    06:00 +24°C° 0 mm 6 mps 696 mmHg 70%
    07:00 +26°C° 0 mm 6 mps 696 mmHg 66%
    08:00 +27°C° 0 mm 5 mps 697 mmHg 63%
    09:00 +28°C° 0 mm 5 mps 698 mmHg 59%
    10:00 +30°C° 0 mm 6 mps 698 mmHg 55%
    11:00 +32°C° 0 mm 6 mps 698 mmHg 51%
    12:00 +30°C° 0 mm 7 mps 698 mmHg 54%
    13:00 +31°C° 0 mm 8 mps 697 mmHg 58%
    14:00 +29°C° 0 mm 8 mps 697 mmHg 61%
    15:00 +28°C° 0.1 mm 8 mps 696 mmHg 63%
    16:00 +28°C° 0.1 mm 8 mps 696 mmHg 66%
    17:00 +27°C° 0.1 mm 8 mps 696 mmHg 68%
    18:00 +26°C° 0 mm 8 mps 696 mmHg 73%
    19:00 +24°C° 0 mm 8 mps 696 mmHg 78%
    20:00 +23°C° 0 mm 8 mps 697 mmHg 84%
    21:00 +23°C° 0 mm 8 mps 697 mmHg 83%
    22:00 +23°C° 0 mm 7 mps 697 mmHg 83%
    23:00 +23°C° 0 mm 7 mps 697 mmHg 82%

    23 February, Saturday

    Time Temperature Precipitation Wind Pressure Humidity
    00:00 +22°C° 0 mm 7 mps 697 mmHg 83%
    01:00 +22°C° 0 mm 6 mps 696 mmHg 84%
    02:00 +22°C° 0 mm 6 mps 696 mmHg 84%
    03:00 +22°C° 0 mm 6 mps 695 mmHg 85%
    04:00 +21°C° 0 mm 5 mps 695 mmHg 86%
    05:00 +21°C° 0 mm 5 mps 695 mmHg 86%
    06:00 +23°C° 0 mm 5 mps 695 mmHg 81%
    07:00 +25°C° 0 mm 5 mps 695 mmHg 75%
    08:00 +26°C° 0 mm 5 mps 695 mmHg 69%
    09:00 +28°C° 0 mm 4 mps 695 mmHg 62%
    10:00 +29°C° 0 mm 3 mps 695 mmHg 55%
    11:00 +31°C° 0 mm 2 mps 695 mmHg 48%
    12:00 +33°C° 0 mm 3 mps 695 mmHg 46%
    13:00 +34°C° 0 mm 4 mps 694 mmHg 44%
    14:00 +35°C° 0 mm 4 mps 693 mmHg 41%
    15:00 +34°C° 0 mm 6 mps 693 mmHg 46%
    16:00 +33°C° 0 mm 7 mps 692 mmHg 51%
    17:00 +32°C° 0 mm 8 mps 692 mmHg 55%
    18:00 +29°C° 0 mm 7 mps 692 mmHg 63%
    19:00 +27°C° 0 mm 6 mps 692 mmHg 71%
    20:00 +26°C° 0 mm 5 mps 692 mmHg 79%
    21:00 +25°C° 0.1 mm 5 mps 692 mmHg 82%
    22:00 +23°C° 0.1 mm 4 mps 693 mmHg 85%
    23:00 +22°C° 0.1 mm 4 mps 693 mmHg 88%

    24 February, Sunday

    Time Temperature Precipitation Wind Pressure Humidity
    00:00 +22°C° 0 mm 4 mps 693 mmHg 88%
    01:00 +22°C° 0 mm 3 mps 692 mmHg 88%
    02:00 +21°C° 0 mm 3 mps 692 mmHg 88%
    03:00 +21°C° 0 mm 3 mps 692 mmHg 89%
    04:00 +21°C° 0 mm 4 mps 692 mmHg 90%
    05:00 +20°C° 0 mm 4 mps 692 mmHg 90%
    06:00 +21°C° 0 mm 5 mps 693 mmHg 81%
    07:00 +22°C° 0 mm 7 mps 694 mmHg 71%
    08:00 +22°C° 0 mm 8 mps 695 mmHg 61%
    09:00 +24°C° 0 mm 8 mps 695 mmHg 49%
    10:00 +26°C° 0 mm 8 mps 696 mmHg 38%
    11:00 +28°C° 0 mm 8 mps 696 mmHg 27%
    12:00 +29°C° 0 mm 8 mps 696 mmHg 24%
    13:00 +31°C° 0 mm 8 mps 696 mmHg 22%
    14:00 +32°C° 0 mm 8 mps 696 mmHg 20%
    15:00 +32°C° 0 mm 8 mps 696 mmHg 20%
    16:00 +31°C° 0 mm 8 mps 695 mmHg 20%
    17:00 +31°C° 0 mm 8 mps 695 mmHg 20%
    18:00 +28°C° 0 mm 8 mps 696 mmHg 20%
    19:00 +26°C° 0 mm 7 mps 696 mmHg 21%
    20:00 +22°C° 0 mm 7 mps 696 mmHg 21%
    21:00 +22°C° 0 mm 7 mps 697 mmHg 21%
    22:00 +21°C° 0 mm 8 mps 698 mmHg 21%
    23:00 +20°C° 0 mm 8 mps 698 mmHg 21%
    Show more